Wind_Speed
33 32 31 32 33 33 33 34 35 35 36 35 35 35 35 35 34 35 38 39 40 42 38 37 41 40 37 35 36 38 39 39 38 39 41 40 40 39 39 39 40 40 40 41 40 39 39 38 36 36 37 37 37 38 39 39 40 40 40 42 43 45 46 47 49 50 51 52 54 56 57 57 57 58 60 61 62 63 64 65 66 67 68 70 72 74
35 33 32 34 35 34 34 35 36 37 37 37 37 37 36 36 37 37 39 41 43 44 41 40 43 41 39 37 36 37 39 38 38 40 41 40 40 39 40 41 41 42 42 42 42 42 41 39 37 37 37 37 38 39 39 40 40 40 41 43 45 46 46 48 50 50 51 53 56 58 58 58 59 59 61 62 63 64 65 66 67 68 70 72 75 77
36 34 33 35 36 36 36 36 37 38 39 39 39 40 38 38 40 39 39 42 44 46 44 43 45 42 40 38 35 38 39 37 38 39 40 40 40 40 40 41 42 43 43 44 44 44 43 41 39 38 39 39 40 40 40 40 40 40 42 44 45 46 48 50 51 51 53 55 57 59 60 60 60 61 62 63 64 65 66 67 68 70 72 75 77 80
38 36 35 37 37 37 38 38 38 40 40 41 41 41 40 40 42 42 41 43 44 47 47 46 47 44 42 38 33 38 41 37 37 39 39 40 40 40 40 41 42 43 43 45 46 46 45 43 41 41 42 42 42 41 41 41 41 42 44 45 46 48 50 51 52 53 55 57 58 60 61 62 62 62 63 64 65 66 66 68 70 72 75 78 80 82
39 38 38 38 38 39 39 39 40 41 42 42 41 42 43 42 43 44 45 45 45 47 47 48 49 46 44 41 32 35 40 38 39 41 40 40 40 40 41 42 43 43 44 46 47 47 46 44 44 44 44 44 43 43 42 42 42 44 45 46 48 51 53 53 54 55 57 58 60 61 63 64 64 64 65 65 66 66 67 69 72 75 78 81 82 84
40 40 40 39 39 40 41 40 40 43 45 44 41 41 45 45 45 46 46 47 48 49 48 48 49 47 48 47 37 34 37 38 42 43 40 41 41 42 43 43 44 44 45 47 48 47 46 45 45 45 45 45 45 44 43 43 44 46 47 48 51 53 54 54 55 57 58 59 60 62 63 64 64 65 65 66 66 67 68 71 74 78 81 83 84 85
42 40 41 41 41 42 42 40 40 44 47 46 43 42 45 46 46 47 47 48 50 51 52 49 48 51 52 51 44 38 37 39 43 44 42 43 43 43 44 46 47 48 49 50 50 49 47 47 46 45 46 46 45 44 44 45 46 47 49 51 53 54 55 55 57 58 60 60 61 63 64 64 65 65 66 67 68 69 70 73 76 80 83 85 86 87
42 42 42 42 43 43 42 41 41 44 47 48 45 44 46 46 48 48 48 49 50 53 56 50 48 54 55 52 50 43 38 39 43 44 43 43 44 45 47 49 50 50 50 51 50 49 48 47 47 46 46 46 45 45 45 46 48 49 51 53 55 56 56 57 58 60 61 61 62 64 64 65 66 67 67 68 69 70 72 76 79 82 85 86 87 88
43 44 44 44 45 44 42 41 43 44 47 48 47 47 48 48 49 49 49 51 51 55 57 50 49 56 56 54 53 47 40 41 44 43 41 42 44 47 49 51 51 50 50 51 51 49 48 48 48 47 46 46 46 46 46 48 50 51 53 55 57 57 58 59 60 62 62 62 63 64 64 65 66 67 68 69 70 72 75 78 82 85 86 86 87 88
45 45 46 46 45 43 42 43 43 44 46 48 48 49 49 50 50 50 52 52 53 58 56 51 51 56 58 55 52 47 42 43 46 43 42 43 45 48 50 51 51 50 51 53 52 51 50 50 48 47 47 47 47 47 48 49 51 53 55 56 58 59 60 61 62 64 64 63 64 65 65 65 66 68 69 70 71 74 77 81 85 86 86 86 87 87
47 47 47 47 45 44 43 43 44 45 46 47 49 50 50 51 52 52 54 54 55 59 56 53 54 57 60 56 51 50 47 46 47 45 45 45 45 48 50 52 52 52 54 55 54 53 52 50 49 48 48 48 48 48 49 51 53 55 56 58 60 61 62 63 64 65 65 65 66 66 66 66 67 68 69 70 72 76 80 84 86 87 87 87 86 86
49 49 48 47 46 45 44 44 45 46 47 48 50 51 51 53 54 55 57 55 57 60 56 55 57 59 61 56 52 54 51 49 49 48 47 45 44 48 51 54 55 56 57 58 56 55 53 51 49 48 48 49 49 49 51 53 54 56 57 60 62 63 63 64 66 67 66 66 67 68 67 67 68 69 70 71 75 79 83 86 87 87 87 87 86 86
51 50 49 48 46 45 44 45 46 47 48 49 51 51 52 54 55 57 59 58 60 61 57 58 60 61 61 56 55 56 54 52 51 50 47 44 46 51 54 56 57 58 60 60 59 57 54 51 49 48 49 50 50 51 53 54 55 57 59 61 63 64 65 66 67 67 67 68 69 69 68 68 69 70 72 74 78 83 86 88 88 88 87 87 86 86
53 52 50 47 46 46 46 46 47 49 50 52 53 53 53 54 56 59 61 61 62 61 60 61 62 63 60 57 58 59 57 54 51 49 47 46 49 54 56 57 58 59 60 60 60 58 54 50 49 49 50 50 51 52 54 55 56 58 60 62 64 66 66 67 67 68 68 69 70 70 69 68 69 71 74 78 82 86 88 89 89 89 88 87 86 85
53 55 53 49 48 49 49 49 50 51 53 55 55 55 55 55 56 58 61 63 64 62 62 64 64 63 61 60 62 61 58 54 51 49 49 49 52 55 56 58 59 59 60 59 60 58 55 51 50 51 51 51 52 54 55 56 57 60 62 64 65 67 67 67 68 68 69 70 70 70 68 68 70 74 77 82 85 88 89 90 90 89 88 87 86 85
54 59 58 55 54 53 52 52 53 54 56 57 56 57 57 57 57 60 62 63 64 63 63 66 65 63 62 63 63 61 57 52 51 50 50 51 54 56 57 59 60 61 61 60 61 60 57 54 52 51 51 52 53 54 55 57 59 61 63 65 66 67 67 67 68 69 69 70 70 68 67 69 73 77 81 84 87 90 91 91 90 89 87 86 86 86
55 59 60 59 58 57 56 56 57 58 59 58 58 59 58 59 60 62 64 63 64 65 65 65 66 66 65 63 59 58 55 52 52 51 52 54 55 58 60 61 63 63 63 62 62 61 57 54 53 52 52 53 54 55 57 58 61 63 64 66 67 67 67 67 68 69 70 69 68 68 69 72 77 80 84 86 89 91 92 92 91 88 86 86 86 87
55 57 57 58 58 58 58 59 60 60 60 60 61 60 60 62 63 63 65 64 65 68 67 65 68 69 67 60 55 56 56 53 53 54 55 57 58 60 63 64 65 64 64 64 63 61 58 54 54 54 54 55 56 57 58 60 62 64 65 66 67 66 66 67 69 69 69 68 67 69 72 76 80 83 86 88 90 91 92 91 89 87 86 85 87 89
55 56 55 55 56 56 56 59 60 59 60 61 61 61 62 64 64 63 65 66 68 70 69 68 70 68 64 61 57 57 56 53 55 58 58 58 60 63 65 65 65 65 65 65 63 61 58 55 56 57 57 57 57 59 60 61 63 65 66 66 65 65 66 68 69 69 68 68 69 72 75 79 82 85 87 89 91 92 92 90 88 86 85 86 88 90
56 57 57 54 54 56 57 59 58 57 58 61 62 64 65 65 65 65 67 68 68 70 70 71 71 64 59 61 59 57 55 53 57 60 59 59 62 64 65 65 65 65 65 64 63 60 57 56 58 59 58 59 59 61 62 63 64 66 66 65 64 65 67 68 68 67 67 69 72 75 78 81 84 86 88 90 91 92 91 89 87 85 85 87 89 90
59 60 59 57 57 60 60 59 59 59 60 62 63 65 66 65 67 68 69 68 68 70 70 73 75 64 55 59 59 56 56 56 59 61 59 61 64 64 65 66 66 66 65 64 62 60 58 58 60 60 60 61 62 62 63 64 66 66 65 63 64 66 67 68 67 67 69 72 75 78 81 83 85 87 89 90 91 90 89 87 86 85 86 88 90 90
61 61 61 61 62 62 62 61 63 64 64 65 65 66 66 66 67 68 70 69 67 71 72 74 79 69 55 58 59 56 59 60 59 60 60 62 64 65 66 66 66 66 64 62 61 59 59 60 61 61 62 63 64 63 63 65 66 65 62 63 65 66 68 68 68 69 72 75 78 80 82 84 85 87 89 89 89 88 87 86 85 86 88 90 90 89
63 61 61 64 64 64 65 66 67 67 68 68 67 66 65 65 65 66 69 70 69 74 76 78 84 74 57 57 59 58 60 60 59 61 61 62 64 65 66 66 65 64 61 61 60 59 60 61 61 63 64 65 65 63 64 65 64 62 61 63 65 67 68 68 69 72 76 78 80 81 83 84 86 87 87 87 87 87 86 86 85 87 89 90 89 88
62 62 63 65 65 66 69 70 71 71 70 69 68 66 66 65 65 67 72 74 74 78 80 80 84 75 60 56 59 59 59 59 60 61 60 60 63 64 65 65 64 62 60 60 59 58 59 61 63 65 66 65 64 63 64 64 61 60 62 64 66 67 68 69 72 75 78 79 80 81 83 84 85 86 86 86 86 86 86 86 86 89 90 90 89 89
62 63 64 66 70 72 73 73 72 70 69 69 68 68 69 68 69 73 76 79 80 81 80 80 81 74 62 59 61 61 61 60 59 58 58 60 62 63 65 64 62 61 60 59 58 58 60 62 63 65 65 64 62 62 63 61 59 60 63 65 66 68 70 72 75 77 78 79 79 81 83 84 84 84 84 85 85 85 85 85 87 90 90 89 89 90
66 68 69 72 76 77 75 72 71 70 70 71 69 69 69 68 70 72 74 80 83 80 79 80 79 74 66 64 65 64 62 59 56 56 59 61 62 63 64 63 61 61 60 58 58 59 61 62 62 63 63 62 61 61 60 58 58 61 64 66 67 69 72 75 76 77 77 78 79 80 82 83 83 83 83 84 84 84 84 86 89 90 89 89 89 90
72 75 75 76 78 78 74 72 72 73 73 71 68 65 64 63 65 66 71 78 78 77 80 79 77 76 71 68 67 63 59 55 54 58 62 62 63 63 63 62 62 62 59 58 58 60 61 61 61 62 61 61 60 59 57 57 60 63 65 67 70 72 74 75 75 75 76 77 78 80 81 81 82 82 82 83 83 83 84 86 89 89 89 89 90 91
74 74 72 72 74 74 71 70 72 73 72 69 67 64 62 64 65 68 73 75 71 74 81 76 72 74 74 70 66 60 54 54 57 60 63 63 63 63 62 62 62 60 57 57 59 59 59 60 60 61 60 58 57 56 56 58 61 64 67 70 73 74 73 73 73 74 75 76 78 79 80 80 81 81 81 82 82 82 84 88 89 89 89 89 90 92
73 73 72 71 72 72 70 69 70 71 69 66 66 66 67 69 71 73 74 71 66 72 77 71 66 70 73 70 64 57 55 58 61 62 63 63 63 63 63 62 60 58 56 57 58 58 58 59 58 58 57 55 54 54 56 60 63 67 71 73 73 73 72 71 72 73 74 76 77 78 79 80 80 80 81 81 81 82 85 88 89 88 89 90 90 92
73 75 73 72 73 74 72 70 70 69 69 69 69 69 70 72 72 71 69 67 64 67 70 68 67 71 73 68 61 58 61 64 63 62 62 63 63 63 62 61 58 57 57 57 57 56 56 56 55 55 54 53 53 55 58 62 67 71 73 73 72 70 70 70 71 72 73 75 76 77 78 79 79 79 80 80 80 82 86 89 89 89 89 90 91 93
73 74 71 69 73 75 73 72 73 73 74 73 71 70 70 70 67 62 62 63 62 65 67 67 70 75 73 66 63 65 66 64 62 62 62 64 64 63 62 59 57 56 57 56 55 54 54 53 53 53 52 51 54 58 62 66 70 71 71 70 69 69 68 69 70 72 73 74 76 77 77 77 78 79 79 79 80 83 87 88 89 89 89 90 91 94
71 72 70 71 76 78 75 75 76 76 75 74 73 72 69 65 60 57 60 63 64 67 68 67 73 78 73 66 66 66 63 61 62 63 64 65 64 62 59 56 56 57 56 55 53 52 52 52 51 50 50 53 58 62 65 67 69 69 69 68 67 67 68 69 70 72 73 74 75 76 76 76 77 78 78 78 80 84 87 88 89 89 89 90 92 94
73 74 73 74 78 79 77 77 78 77 77 79 78 71 62 56 56 59 63 66 67 67 67 69 74 76 70 66 65 62 60 62 64 64 64 63 60 58 56 56 56 57 55 53 52 51 51 50 48 49 52 56 60 62 65 66 67 67 67 65 65 66 67 69 70 72 73 74 75 75 75 76 76 77 77 78 81 84 87 88 88 89 89 90 92 95
77 77 76 76 78 80 79 79 80 81 83 83 76 65 58 57 61 65 68 69 67 65 66 68 70 70 68 66 63 62 63 64 62 61 62 60 57 56 56 56 56 54 53 52 51 49 48 47 48 52 57 59 61 64 66 67 67 66 65 65 65 66 68 69 71 72 73 74 74 74 74 75 76 76 77 78 81 84 86 87 88 89 89 91 93 95
79 78 78 78 79 80 80 79 83 88 87 80 70 63 62 64 67 70 71 70 68 66 66 67 67 67 66 65 64 65 66 62 58 58 59 57 55 56 57 55 53 52 51 50 49 47 46 47 51 57 61 64 66 68 68 68 67 66 65 65 66 67 69 70 71 72 73 73 73 73 73 74 75 75 76 78 81 84 85 87 88 89 89 91 93 95
75 76 77 78 78 81 82 83 87 90 83 74 69 67 65 66 69 71 71 72 70 67 67 69 67 64 63 65 65 65 63 59 56 55 54 53 55 57 56 54 52 52 52 50 48 46 46 50 56 62 66 68 70 70 69 68 67 66 66 66 67 69 71 72 72 73 73 73 72 72 73 74 74 75 76 78 81 83 84 86 88 88 89 91 93 96
70 72 73 76 78 81 84 86 87 85 80 74 71 66 62 65 68 67 70 73 71 69 70 69 64 60 60 61 62 61 59 57 55 53 52 55 58 58 55 54 54 54 53 50 47 47 49 54 60 66 69 71 72 71 70 69 68 67 67 67 69 71 73 74 74 73 72 72 72 72 72 73 73 74 76 78 80 82 83 86 88 88 89 91 93 95
65 68 70 73 77 78 80 84 84 84 83 76 68 62 61 66 66 63 70 76 72 68 66 61 56 56 57 57 58 57 56 56 57 55 54 58 60 57 55 56 56 56 54 51 48 49 53 58 64 69 71 72 73 72 71 69 68 68 68 69 72 74 75 75 74 72 72 71 71 71 72 72 72 73 75 78 80 81 83 85 87 88 90 91 93 95
61 62 63 68 73 74 77 82 83 84 81 71 62 61 64 67 65 63 70 76 70 61 54 51 54 57 56 54 54 55 57 61 62 60 58 61 60 57 57 58 58 58 56 52 50 52 56 63 69 73 74 75 75 73 71 70 68 68 70 72 74 76 76 74 72 71 71 71 71 71 71 71 72 73 75 77 79 80 82 84 86 88 89 91 93 96
59 58 59 63 68 70 74 78 81 82 77 65 57 59 63 66 62 61 69 73 64 53 49 52 56 56 55 56 58 60 63 66 67 64 61 60 59 59 60 60 59 59 57 54 53 55 60 68 74 76 77 77 76 74 71 68 66 68 70 73 75 76 76 73 71 70 70 70 70 70 71 71 72 73 75 76 77 80 82 84 86 87 89 91 93 96
60 59 59 61 62 64 68 73 76 76 69 58 54 56 59 59 57 61 68 66 54 48 52 54 54 55 57 61 63 64 66 67 68 65 61 58 58 58 58 58 59 60 58 56 56 59 66 73 76 78 79 78 75 72 69 66 65 66 69 71 74 75 74 71 70 69 69 69 69 69 70 70 71 73 74 75 76 79 81 83 85 87 89 90 92 95
65 63 62 61 59 60 63 67 71 70 57 46 47 49 49 51 54 60 64 57 49 51 51 49 51 54 57 59 59 60 61 63 62 58 54 54 55 54 55 58 59 58 58 58 59 64 71 75 77 78 78 75 72 69 67 65 65 65 67 70 73 74 72 69 68 68 67 67 68 68 68 70 71 72 73 74 76 78 80 83 85 87 88 90 92 94
77 76 75 68 60 60 63 66 70 67 53 43 44 47 49 53 56 56 54 50 48 47 46 49 56 59 59 59 57 55 55 54 52 50 51 53 53 53 57 60 59 58 59 60 63 68 73 76 77 77 75 71 69 68 66 66 65 65 67 70 73 72 69 67 66 66 65 65 65 66 67 68 70 71 72 73 75 77 79 82 84 86 88 90 91 92
90 88 84 75 67 70 78 79 73 65 54 46 44 45 49 52 50 47 48 48 45 45 52 60 63 62 61 61 60 58 58 56 56 56 57 58 58 59 60 60 59 59 60 62 66 71 74 76 78 76 74 72 70 67 66 65 65 65 68 71 72 70 67 65 64 63 63 63 63 64 66 67 68 70 71 72 74 76 78 81 84 85 87 89 90 90
98 92 89 87 86 89 93 90 81 72 63 54 47 46 51 52 48 46 50 52 51 56 64 65 61 62 65 66 66 66 65 64 64 64 64 64 63 62 60 59 59 62 63 65 69 72 75 77 78 76 75 73 69 66 66 66 65 66 69 71 70 67 64 62 62 61 60 61 61 62 64 65 67 68 70 71 74 75 78 81 83 85 86 87 89 89
106 102 102 102 101 99 98 95 90 83 77 70 64 62 64 62 57 56 58 61 64 68 69 65 63 66 68 68 67 65 63 63 65 66 67 66 62 60 60 61 62 64 66 69 71 73 75 78 79 77 75 72 68 66 66 66 65 66 69 70 68 64 61 60 59 58 58 59 59 60 62 63 65 67 68 71 73 75 78 81 83 84 85 86 87 87
108 109 107 104 102 101 102 101 93 86 86 85 81 77 76 74 72 71 71 71 70 69 67 65 65 65 65 65 65 62 62 66 67 66 64 62 60 61 62 63 65 67 69 70 72 74 78 80 80 77 73 69 67 67 66 66 65 67 69 69 65 62 59 57 56 56 56 57 57 59 60 61 63 65 67 70 73 75 77 80 83 84 84 84 85 85
103 104 103 102 102 104 107 106 100 93 92 90 85 81 80 81 82 81 78 74 71 69 67 65 63 61 61 63 64 65 68 69 66 63 61 60 61 63 64 65 67 69 70 72 74 77 81 82 79 74 69 67 67 67 66 65 66 68 69 66 63 59 56 54 53 53 53 54 55 57 58 60 62 64 66 70 72 75 77 79 82 83 84 84 84 83
95 97 97 98 100 103 106 108 105 100 95 91 88 86 86 86 85 81 76 71 69 67 65 63 60 59 60 63 66 68 68 66 63 61 61 63 64 65 65 66 68 69 72 75 78 80 82 79 74 69 68 68 67 66 65 66 68 68 67 64 60 56 53 52 51 51 51 52 53 55 57 59 60 63 65 68 72 75 77 79 80 82 83 83 82 81
96 98 96 95 97 101 103 104 102 98 95 95 96 94 91 86 82 77 72 68 66 64 62 61 58 57 58 63 66 66 64 63 62 61 61 62 62 62 63 66 69 72 76 78 80 80 78 73 70 68 67 66 64 64 65 67 68 68 65 61 57 54 51 49 49 49 50 51 52 53 55 57 60 62 64 67 70 73 77 80 81 81 81 79 77 75
105 103 99 95 96 98 97 95 94 93 93 93 94 93 88 81 75 72 71 70 68 65 61 59 58 57 59 62 65 66 66 64 62 60 59 59 60 62 64 68 71 75 77 77 77 76 72 69 68 66 64 63 63 65 67 68 68 66 63 58 54 51 48 47 47 47 48 49 50 52 54 56 59 61 64 66 69 71 74 77 79 79 77 73 69 66
Wind_Direction
293 295 298 298 297 299 299 302 304 305 305 305 307 307 308 308 307 304 303 305 304 304 309 309 306 309 314 313 311 310 311 313 315 313 310 309 308 307 305 303 300 296 293 291 291 292 292 294 295 296 296 296 298 300 300 300 300 301 301 301 302 303 305 307 309 310 310 311 312 312 311 309 308 307 305 303 301 298 296 295 294 292 291 291 291 291
292 295 297 294 295 297 297 299 302 302 302 303 304 304 306 306 304 303 303 304 303 303 307 307 305 308 311 311 311 310 309 312 314 312 309 309 308 306 305 303 300 297 294 292 291 291 292 293 295 297 296 298 301 302 302 301 302 302 301 302 303 305 307 310 310 310 311 312 313 312 311 309 307 306 304 302 300 298 297 295 294 293 292 292 292 292
291 294 294 292 295 295 294 297 299 300 300 301 302 302 305 304 302 303 304 302 302 303 305 305 304 306 308 309 314 311 308 311 312 309 309 309 308 306 305 303 300 297 295 293 291 290 291 293 295 296 296 299 302 303 302 302 302 302 302 303 305 308 310 311 311 311 312 312 313 312 311 309 307 305 303 302 300 299 297 296 295 294 293 293 293 293
291 293 292 292 293 292 292 296 298 298 297 298 300 302 303 302 301 304 303 301 301 302 304 305 304 305 305 306 313 311 308 312 310 307 310 310 309 307 305 304 302 300 297 293 291 291 291 293 295 295 295 298 301 302 302 302 301 302 303 305 308 310 312 312 312 313 312 312 312 312 311 309 307 305 303 302 301 299 298 297 296 295 295 295 294 294
291 292 293 292 291 290 291 295 296 296 295 296 298 301 302 300 301 303 303 302 301 301 303 305 305 305 303 302 308 310 310 315 312 309 312 311 310 307 305 305 304 302 299 295 293 292 293 294 295 295 296 298 300 301 301 301 301 302 304 307 310 312 313 312 313 313 312 311 312 312 310 309 308 306 304 302 301 299 299 298 297 297 296 296 295 295
290 292 292 291 289 289 291 294 295 294 294 294 298 300 299 299 301 301 302 302 302 302 303 305 307 307 303 301 308 313 313 317 314 312 314 313 311 309 307 308 307 305 301 297 295 294 294 295 295 296 296 298 299 300 299 300 301 303 305 308 310 312 312 313 314 313 312 311 311 311 310 309 308 306 304 302 301 299 299 298 298 297 297 296 296 296
290 291 289 289 289 289 291 294 294 293 293 295 298 298 296 298 300 299 301 301 301 303 302 304 309 307 301 302 308 312 316 319 315 314 315 313 311 310 309 309 308 306 303 300 298 296 295 295 295 296 297 298 299 299 298 299 300 303 305 308 309 311 312 312 313 313 311 310 311 311 310 310 308 306 304 303 301 300 300 299 299 298 297 297 297 297
290 288 287 288 288 289 292 293 292 291 293 296 297 296 295 296 297 297 299 299 301 302 300 304 309 303 299 303 307 311 319 320 314 315 315 312 311 310 309 308 306 305 304 302 300 297 296 295 295 296 296 297 299 299 298 298 300 302 305 307 308 310 311 312 313 312 311 310 311 311 310 310 308 307 305 304 302 302 301 301 300 298 298 298 298 299
288 287 287 287 288 290 292 291 290 291 292 294 295 294 294 295 295 296 297 298 300 299 299 306 306 299 298 302 305 311 320 318 314 315 315 312 311 310 308 305 305 305 305 303 301 298 295 294 294 294 295 297 299 299 298 298 300 303 304 305 307 309 311 312 313 312 311 310 310 310 310 310 308 307 305 304 303 302 302 301 300 299 298 299 300 302
287 287 287 287 288 290 289 289 290 291 291 292 293 293 294 294 294 296 296 298 298 296 300 306 303 298 298 301 306 313 318 315 313 316 315 313 312 308 305 303 303 304 303 302 300 297 293 292 293 292 294 298 300 300 299 300 301 303 304 305 307 309 311 313 313 312 311 310 310 310 309 309 308 306 305 304 304 303 302 301 300 299 299 300 302 303
286 285 285 286 288 288 288 289 290 290 290 291 292 292 293 293 293 295 295 296 295 296 301 303 300 297 297 302 310 313 313 313 313 316 316 314 311 307 304 302 302 301 300 299 299 297 292 290 291 291 295 299 301 301 301 301 302 303 304 305 307 309 311 313 313 312 310 309 309 309 309 308 307 306 305 304 304 303 303 301 300 300 300 301 303 304
284 284 284 286 287 288 289 290 290 290 290 290 290 291 292 292 293 294 295 295 294 296 301 301 298 295 295 303 311 309 310 312 313 316 316 314 311 306 303 302 302 301 300 299 299 297 293 291 290 291 296 300 301 302 302 302 303 304 304 305 307 309 311 313 313 311 310 309 309 308 308 307 306 305 305 305 304 304 303 301 301 301 301 302 303 304
283 284 285 286 287 289 289 289 290 290 289 289 288 289 291 291 293 294 294 295 294 296 299 298 296 294 296 305 308 306 307 310 314 317 316 315 311 305 303 303 304 303 301 300 300 298 294 291 290 293 297 301 302 303 303 303 304 305 305 306 307 309 311 313 312 311 309 309 308 308 308 307 306 305 305 305 304 304 303 302 302 302 302 303 303 304
285 285 286 287 288 288 288 288 288 288 287 287 287 288 289 291 293 293 294 294 294 297 298 296 295 295 300 306 305 304 306 311 316 317 316 316 310 305 304 304 304 302 300 300 300 298 294 290 291 295 299 301 303 304 305 305 305 306 306 306 307 309 311 312 311 310 309 308 308 307 307 306 306 306 305 305 304 304 303 303 303 303 304 304 304 305
287 285 285 287 286 285 286 286 286 285 285 285 286 287 288 290 292 292 292 292 294 297 297 295 294 297 302 305 303 303 307 313 317 315 315 315 309 305 305 304 303 300 298 298 298 297 293 290 293 297 300 302 304 305 306 306 306 307 307 307 308 309 311 311 310 309 308 308 307 307 306 306 306 306 306 305 304 304 304 304 304 305 305 305 306 306
286 284 284 285 285 285 285 284 284 284 283 284 285 286 288 290 291 291 290 291 294 296 295 294 295 298 301 301 300 302 307 313 315 314 315 313 308 306 305 303 301 299 298 298 297 296 293 290 294 299 301 302 304 306 307 307 308 308 308 308 309 310 310 310 309 308 307 307 306 306 306 306 306 306 306 305 304 304 305 305 306 306 306 306 307 308
283 281 282 283 283 283 283 283 283 283 283 284 285 287 289 290 290 289 289 291 293 292 293 295 296 298 299 298 300 303 308 313 313 313 313 312 309 307 304 303 301 299 299 298 298 297 294 292 296 300 301 302 304 306 307 308 309 309 309 309 309 309 309 309 308 307 306 306 305 306 306 306 306 306 305 305 305 305 306 307 307 307 307 307 308 309
282 281 282 283 283 283 284 284 282 282 284 285 286 288 289 288 288 288 289 291 292 291 292 294 296 297 296 297 301 305 309 313 312 310 312 312 310 306 304 303 301 300 299 298 299 299 296 295 298 301 301 301 303 306 307 308 310 310 310 309 309 309 309 308 307 306 305 305 305 306 306 306 305 305 305 305 305 306 307 307 307 307 308 308 309 311
284 283 285 287 287 288 288 285 284 286 288 289 289 288 287 286 287 288 289 290 290 290 293 295 295 296 295 297 301 305 310 313 309 308 312 312 309 304 303 302 301 299 298 298 299 299 297 297 299 300 300 301 303 305 306 308 310 311 310 309 309 309 308 307 306 305 304 305 306 307 307 305 305 305 305 305 306 306 307 307 307 308 308 309 311 312
285 285 286 289 290 289 287 286 288 291 291 289 288 287 286 287 289 289 289 289 290 291 293 294 293 294 295 297 301 307 311 309 306 307 311 310 306 303 301 301 299 298 297 298 299 298 297 297 298 299 300 301 302 304 306 309 311 311 310 309 308 308 308 307 305 305 305 305 306 307 306 305 305 305 305 306 306 307 307 307 308 308 309 311 312 313
287 286 288 290 287 285 285 287 289 288 286 285 285 285 287 289 291 290 290 291 293 292 292 291 291 292 296 299 305 311 309 305 305 307 308 306 303 301 300 299 298 296 296 297 298 297 296 296 298 299 300 302 303 304 306 309 311 311 309 308 308 308 307 306 305 305 305 306 307 307 306 305 305 305 306 306 307 307 307 308 308 309 310 312 313 314
286 286 288 287 285 285 286 286 284 283 283 283 283 285 288 290 290 290 291 292 292 290 290 289 288 291 297 304 309 310 305 304 305 304 303 302 301 300 298 297 296 294 294 296 296 295 294 295 297 300 301 303 303 304 306 309 310 309 308 308 308 308 307 306 306 306 306 307 307 306 305 305 306 306 306 307 307 307 308 308 309 310 312 313 315 316
286 285 286 285 285 285 284 282 282 282 282 282 284 287 289 289 289 289 289 289 288 288 288 286 287 292 302 309 310 306 303 304 303 301 302 301 299 298 297 296 295 294 294 294 294 294 294 295 298 301 302 303 303 304 306 308 308 307 307 308 308 307 306 305 306 307 307 307 307 306 305 306 306 306 307 307 307 308 308 309 309 311 313 315 316 317
285 284 284 284 283 282 280 279 280 280 282 284 287 288 287 287 288 287 287 287 287 287 287 285 287 295 306 312 307 303 304 303 302 302 302 300 297 297 297 297 296 295 293 293 294 294 295 297 300 301 302 302 302 304 306 306 306 306 308 308 307 306 305 305 306 307 307 307 306 305 305 306 306 306 307 307 308 308 309 309 311 313 314 316 318 318
282 282 282 281 280 278 278 278 280 283 285 286 286 285 285 286 287 287 288 288 287 287 288 287 291 300 309 310 305 304 305 304 304 303 300 297 298 299 299 299 298 294 292 292 294 296 297 298 300 301 301 301 302 304 305 304 305 307 308 307 305 305 304 306 306 307 307 307 306 305 305 306 306 307 307 308 308 309 309 310 312 314 316 317 319 319
279 277 276 276 276 276 278 280 282 285 284 284 284 285 286 288 287 288 290 287 286 289 290 290 296 303 306 304 303 304 305 306 305 300 297 298 300 301 301 300 296 292 291 293 295 296 297 299 300 300 300 300 302 303 303 303 305 307 306 305 304 304 305 306 307 306 306 306 305 305 305 306 307 307 308 308 309 309 310 312 314 315 317 318 319 319
276 275 275 276 275 276 280 282 283 283 282 282 284 286 288 288 288 289 287 286 290 294 292 294 301 303 303 302 302 305 307 305 301 297 298 301 302 301 300 297 293 291 292 294 295 296 297 299 299 299 299 300 302 302 302 304 305 305 305 304 304 305 306 306 306 306 306 305 305 305 306 306 307 308 308 309 309 309 310 313 315 316 317 318 319 319
276 276 278 278 278 279 281 282 282 281 281 282 284 285 287 288 288 286 285 289 296 295 292 297 304 304 303 303 304 307 307 300 297 298 300 301 300 298 297 294 292 292 294 295 295 296 297 298 298 298 299 300 300 300 302 303 304 304 304 304 304 306 306 306 306 305 305 305 305 306 306 307 307 308 309 309 309 310 311 314 315 317 318 318 319 319
274 275 275 277 278 279 280 281 280 280 281 282 283 285 286 286 285 285 287 293 296 293 292 300 305 303 303 305 308 309 302 296 297 299 299 298 297 296 294 294 293 294 295 294 294 296 297 297 297 297 298 299 299 301 302 302 302 303 304 304 305 306 306 305 305 305 305 305 306 306 306 307 308 309 309 309 309 311 313 315 316 317 318 318 319 319
272 274 275 277 278 278 278 279 281 282 283 283 284 285 285 284 285 287 291 293 292 291 295 302 303 300 301 307 309 304 297 296 298 299 297 296 295 294 294 295 294 294 294 293 294 295 296 296 296 296 297 298 300 301 301 301 303 304 304 304 305 305 305 305 304 305 305 306 306 306 307 308 309 309 309 309 310 311 314 315 316 317 318 319 319 320
271 274 276 278 278 277 278 280 282 283 283 283 284 283 283 285 288 290 290 289 290 292 297 301 299 296 301 306 303 298 297 298 297 297 296 294 294 295 296 297 295 294 293 293 294 295 294 294 295 295 297 299 301 302 302 302 303 304 304 305 305 305 305 304 305 305 306 306 306 307 308 309 309 309 309 309 310 313 315 316 316 317 318 319 320 320
271 273 275 277 277 278 281 282 282 282 282 281 280 282 287 291 290 287 286 286 291 295 298 297 295 297 303 303 298 297 299 297 295 296 296 295 296 298 297 295 294 292 293 294 294 294 293 293 294 296 299 301 303 303 303 304 304 304 305 305 305 305 304 304 305 305 306 307 307 308 309 309 310 310 310 310 311 314 315 316 317 318 319 320 320 320
271 272 275 276 277 280 282 282 282 281 279 278 281 288 294 291 285 283 284 287 292 296 296 294 295 300 303 299 297 298 296 293 295 296 297 297 298 296 295 294 293 293 293 293 293 292 292 293 296 299 302 304 305 305 306 306 306 305 304 304 304 305 304 304 305 306 306 307 308 308 309 310 310 310 309 310 312 315 316 316 317 318 319 320 320 321
272 273 275 275 276 278 280 281 280 277 275 280 287 293 290 282 280 282 285 289 293 294 293 293 296 301 301 297 295 294 292 293 295 297 298 298 296 294 295 295 294 293 292 292 291 291 292 295 298 301 306 308 309 309 309 308 306 304 303 303 304 305 305 305 306 306 307 307 308 309 310 310 310 309 309 310 313 315 316 317 317 319 320 320 321 322
273 274 275 275 275 275 277 277 273 273 279 286 289 287 283 281 281 284 287 290 291 292 292 292 296 301 298 294 292 291 292 294 295 297 298 296 294 295 296 295 294 292 291 290 290 290 292 295 299 304 309 311 311 310 309 307 305 303 301 301 303 304 305 305 306 306 306 307 308 309 310 310 309 309 309 311 314 316 317 317 318 319 320 320 322 324
272 272 273 273 273 273 273 272 272 277 283 284 282 283 283 283 284 287 289 288 289 292 294 294 298 300 295 291 290 291 293 294 295 299 299 293 293 296 295 293 292 290 289 288 287 288 291 295 301 308 311 311 310 309 307 305 303 301 300 301 302 303 304 305 305 306 306 307 309 309 309 309 308 308 309 312 314 316 317 317 318 319 320 321 324 325
269 269 270 271 271 271 271 272 273 276 276 277 282 285 284 282 285 288 288 287 289 294 296 298 300 296 290 289 289 290 292 292 295 301 299 291 293 295 292 291 290 288 286 284 283 287 292 297 304 309 310 309 309 308 306 304 302 300 300 301 302 303 304 305 305 306 307 308 309 309 308 308 307 308 310 312 314 316 317 318 318 319 320 323 325 327
266 268 269 271 271 271 271 272 272 271 273 279 285 283 279 281 284 287 287 286 290 296 300 300 297 289 286 287 287 288 290 291 296 301 296 289 291 292 289 289 288 286 283 281 282 288 293 300 307 309 309 309 309 307 306 303 301 300 300 301 302 303 304 304 305 306 307 308 308 308 307 307 307 308 310 313 315 316 317 318 319 320 322 324 326 328
264 266 269 272 272 272 272 273 273 273 276 281 282 279 277 280 284 285 283 285 294 302 301 295 288 284 285 286 285 287 290 293 297 299 293 288 290 290 287 287 286 283 280 279 282 288 296 303 308 309 309 309 309 307 305 303 301 300 300 301 302 302 303 304 305 306 307 308 307 307 306 306 307 308 310 313 315 316 318 318 319 320 323 326 327 329
264 266 269 272 274 274 274 275 276 276 277 280 281 279 279 281 282 279 278 288 301 303 292 284 283 284 287 287 287 289 292 294 295 295 291 289 289 288 286 286 284 280 278 279 282 289 298 305 307 308 308 308 308 306 303 301 301 300 300 301 301 302 304 304 305 306 307 307 306 305 305 305 307 309 311 313 315 317 318 319 320 322 325 327 328 330
269 269 270 273 277 277 276 276 277 277 279 282 282 281 281 280 274 273 283 297 303 291 281 282 283 285 288 289 289 290 291 291 291 291 290 289 287 287 287 285 282 280 279 279 284 292 300 304 305 306 307 307 306 304 302 301 300 300 300 301 302 303 303 304 305 305 306 305 305 304 304 306 307 309 311 313 315 317 318 319 320 323 326 328 330 331
274 273 274 275 277 278 278 278 279 279 280 283 284 281 278 272 270 279 292 297 288 279 280 283 287 292 294 293 293 292 289 289 289 290 290 289 288 290 291 287 283 282 282 283 288 296 300 302 303 305 306 306 304 302 301 300 300 300 301 301 302 302 302 303 304 304 304 304 303 303 304 306 307 309 311 313 315 317 319 320 321 324 327 329 331 332
273 273 274 273 272 276 280 280 279 279 278 278 280 280 275 273 279 288 290 284 280 281 285 290 295 297 296 295 295 293 291 290 290 291 295 295 293 294 294 291 286 285 286 288 292 297 300 301 303 305 305 304 303 301 300 300 300 300 301 301 301 300 301 302 303 303 303 302 303 303 305 306 308 309 311 313 315 317 319 321 322 325 328 330 332 333
272 271 272 273 272 274 277 278 279 281 280 274 275 281 284 285 286 286 284 284 287 289 292 297 298 294 291 292 292 291 291 290 289 292 297 297 294 295 296 293 288 287 288 290 294 298 299 301 303 304 304 303 301 300 300 300 301 301 302 302 300 298 299 301 301 301 301 302 302 304 305 306 308 309 311 313 315 317 320 321 323 326 328 331 333 333
272 270 273 275 274 273 273 275 278 280 280 275 276 284 290 290 285 281 284 290 294 295 296 296 292 288 289 291 291 291 290 288 289 293 295 295 294 295 294 292 290 288 288 291 295 297 298 301 303 303 302 301 300 299 300 302 302 302 303 301 298 297 299 300 300 300 300 301 303 304 305 306 308 310 311 314 316 318 320 322 324 326 329 332 334 334
274 274 275 277 277 275 274 273 275 277 278 276 276 279 283 286 285 284 288 292 294 294 293 290 288 289 291 291 291 291 290 289 292 294 293 292 292 292 291 291 290 288 288 291 294 296 297 300 301 301 301 300 299 299 301 303 303 303 303 300 297 296 298 298 299 300 300 301 303 304 305 307 308 311 313 315 317 319 321 323 325 327 330 333 335 334
275 276 277 278 279 279 277 274 274 276 277 277 277 279 281 283 285 286 288 291 291 290 289 289 289 290 289 288 290 291 291 293 294 292 290 289 288 288 288 288 287 286 287 290 292 294 297 299 300 300 299 298 297 300 302 303 302 303 302 299 296 295 297 297 298 299 300 301 303 304 305 307 309 312 314 316 319 321 323 324 326 328 331 334 335 334
275 275 276 278 278 279 279 278 277 277 277 276 277 279 280 281 283 285 287 287 286 285 286 287 287 285 285 287 289 292 293 294 291 288 286 285 284 285 284 283 284 286 288 289 292 295 297 298 299 298 298 297 298 300 302 302 302 302 300 297 295 295 296 296 297 299 299 301 302 304 306 308 310 313 316 318 320 322 324 326 327 330 332 334 335 335
274 273 274 276 277 277 278 278 278 279 278 277 277 278 279 282 285 287 286 284 283 283 282 281 280 280 283 286 290 292 292 290 287 285 283 282 282 281 280 281 285 287 289 290 292 294 296 298 297 296 296 296 298 300 301 302 302 301 298 295 293 294 294 295 296 298 299 300 302 304 306 309 311 315 317 320 323 325 326 328 329 332 334 335 336 335
269 271 273 275 275 275 276 278 279 280 281 280 280 280 282 285 288 288 287 284 283 281 278 275 275 277 281 286 288 289 288 287 285 281 279 279 279 279 281 285 288 289 289 290 292 294 296 296 295 294 295 296 298 300 301 300 300 298 296 293 292 292 293 294 296 297 299 301 303 305 308 310 313 316 319 322 324 327 329 331 333 335 335 335 335 334
268 271 273 272 272 274 277 278 279 280 281 282 282 283 285 287 287 286 284 284 284 282 278 275 273 276 281 284 284 283 283 281 280 277 276 277 280 282 285 287 288 289 289 290 292 294 294 293 292 293 295 297 298 299 299 298 298 296 293 291 290 290 291 293 295 297 299 301 303 306 309 312 315 319 321 323 325 327 330 333 336 337 336 334 333 332
Height
5830 5829 5829 5827 5825 5824 5822 5821 5819 5817 5816 5815 5814 5813 5812 5810 5810 5808 5804 5802 5799 5796 5799 5798 5792 5792 5795 5795 5792 5789 5787 5786 5784 5781 5778 5777 5775 5773 5771 5769 5767 5765 5764 5762 5761 5760 5759 5758 5758 5756 5755 5753 5751 5749 5747 5745 5743 5742 5740 5738 5736 5734 5731 5729 5726 5723 5720 5717 5714 5711 5708 5704 5700 5697 5693 5688 5685 5682 5678 5675 5672 5668 5665 5662 5658 5654
5826 5826 5826 5823 5821 5820 5818 5817 5816 5813 5812 5811 5810 5808 5808 5806 5804 5804 5801 5798 5796 5792 5794 5794 5789 5789 5791 5791 5790 5786 5783 5782 5780 5778 5774 5773 5771 5769 5767 5765 5762 5761 5759 5757 5756 5755 5754 5754 5753 5751 5749 5747 5745 5743 5741 5739 5738 5736 5734 5732 5730 5728 5725 5723 5720 5716 5713 5710 5708 5705 5702 5698 5694 5690 5687 5682 5678 5675 5671 5666 5663 5659 5656 5652 5648 5644
5822 5823 5822 5819 5817 5816 5814 5814 5812 5810 5808 5807 5806 5804 5804 5802 5799 5799 5798 5795 5792 5788 5788 5788 5784 5784 5786 5787 5787 5782 5780 5780 5777 5774 5772 5769 5767 5765 5762 5760 5758 5756 5754 5752 5750 5749 5749 5749 5748 5746 5743 5742 5740 5738 5736 5734 5732 5730 5728 5726 5723 5721 5719 5716 5713 5710 5707 5704 5701 5698 5695 5692 5688 5684 5680 5675 5671 5668 5664 5659 5654 5650 5646 5642 5638 5633
5818 5819 5818 5815 5814 5812 5810 5810 5808 5806 5804 5803 5802 5799 5799 5798 5794 5793 5793 5791 5788 5784 5783 5782 5778 5778 5780 5782 5785 5779 5774 5776 5773 5769 5768 5766 5763 5761 5758 5756 5753 5751 5749 5747 5745 5744 5744 5743 5742 5740 5738 5736 5734 5732 5730 5728 5726 5724 5722 5720 5717 5715 5712 5709 5706 5703 5700 5697 5694 5691 5687 5684 5680 5676 5672 5668 5663 5659 5656 5651 5646 5641 5636 5632 5628 5622
5815 5815 5813 5812 5810 5808 5807 5806 5804 5801 5799 5798 5798 5796 5793 5792 5790 5788 5787 5785 5783 5781 5779 5777 5772 5770 5770 5773 5782 5779 5771 5771 5768 5765 5765 5761 5759 5757 5753 5751 5748 5746 5744 5741 5739 5738 5738 5738 5736 5734 5732 5730 5728 5726 5724 5722 5720 5718 5716 5713 5711 5708 5705 5702 5699 5696 5693 5690 5686 5683 5679 5675 5671 5667 5663 5660 5655 5651 5647 5642 5637 5632 5626 5622 5617 5612
5811 5811 5809 5807 5806 5804 5803 5802 5801 5796 5793 5793 5794 5793 5788 5787 5786 5783 5782 5779 5777 5775 5774 5775 5769 5762 5758 5761 5772 5776 5770 5767 5762 5759 5759 5756 5753 5751 5748 5746 5743 5741 5738 5735 5734 5733 5732 5732 5730 5728 5726 5724 5722 5721 5719 5716 5714 5711 5709 5707 5704 5701 5697 5694 5691 5688 5685 5682 5679 5675 5671 5667 5663 5660 5655 5651 5647 5643 5639 5635 5629 5623 5617 5611 5606 5601
5808 5807 5804 5803 5801 5800 5799 5798 5797 5792 5787 5787 5789 5789 5784 5783 5781 5779 5778 5775 5772 5769 5767 5771 5769 5756 5747 5751 5761 5768 5768 5764 5758 5754 5753 5751 5748 5745 5743 5740 5737 5734 5732 5729 5728 5727 5727 5725 5724 5722 5720 5718 5716 5715 5712 5710 5707 5704 5702 5699 5696 5693 5689 5686 5683 5680 5678 5674 5670 5666 5663 5659 5656 5652 5648 5643 5639 5635 5631 5627 5621 5615 5608 5602 5596 5590
5803 5802 5800 5799 5797 5795 5795 5794 5791 5787 5783 5782 5783 5783 5780 5779 5777 5774 5774 5771 5768 5764 5760 5766 5768 5752 5740 5743 5751 5758 5763 5760 5754 5751 5749 5746 5743 5740 5737 5734 5731 5728 5726 5724 5722 5721 5721 5719 5717 5716 5713 5712 5710 5708 5706 5703 5700 5698 5695 5692 5688 5685 5681 5678 5675 5672 5669 5665 5662 5658 5654 5650 5646 5643 5639 5635 5631 5626 5622 5618 5612 5606 5599 5592 5585 5579
5797 5796 5795 5793 5792 5791 5791 5789 5786 5784 5780 5778 5778 5776 5775 5774 5771 5770 5768 5766 5765 5758 5755 5762 5764 5749 5737 5738 5743 5750 5757 5755 5749 5747 5745 5742 5739 5735 5732 5728 5725 5723 5720 5718 5717 5716 5715 5713 5711 5710 5707 5706 5704 5702 5699 5696 5693 5690 5687 5684 5681 5678 5674 5670 5667 5663 5660 5657 5653 5649 5645 5641 5637 5633 5630 5626 5622 5617 5613 5608 5602 5596 5590 5583 5575 5569
5791 5790 5789 5787 5787 5787 5785 5783 5781 5779 5776 5774 5773 5770 5769 5767 5765 5765 5762 5761 5759 5752 5751 5758 5756 5745 5733 5731 5739 5745 5750 5748 5743 5743 5740 5737 5734 5730 5726 5722 5719 5717 5714 5712 5711 5710 5708 5707 5705 5703 5701 5700 5697 5695 5692 5689 5686 5683 5679 5676 5673 5670 5666 5662 5659 5655 5652 5648 5645 5641 5636 5633 5629 5625 5621 5617 5613 5608 5603 5598 5592 5586 5580 5574 5567 5561
5785 5784 5783 5782 5782 5781 5780 5778 5776 5774 5772 5770 5768 5765 5764 5761 5759 5759 5756 5756 5752 5746 5749 5751 5748 5742 5728 5725 5734 5738 5741 5742 5739 5738 5736 5732 5730 5724 5720 5716 5713 5712 5709 5706 5704 5703 5702 5700 5699 5697 5695 5693 5691 5688 5685 5682 5679 5675 5672 5669 5665 5662 5659 5654 5651 5647 5643 5639 5636 5632 5627 5623 5620 5616 5612 5609 5604 5599 5594 5588 5582 5576 5570 5564 5559 5553
5779 5778 5777 5776 5776 5775 5774 5772 5770 5769 5767 5765 5762 5759 5758 5754 5753 5752 5749 5750 5746 5741 5745 5744 5739 5735 5724 5723 5731 5731 5732 5735 5733 5732 5731 5728 5724 5719 5714 5710 5707 5705 5702 5699 5697 5696 5695 5693 5692 5690 5688 5687 5684 5681 5678 5674 5671 5668 5665 5661 5657 5654 5651 5646 5643 5639 5635 5631 5626 5622 5618 5615 5611 5607 5603 5600 5595 5590 5585 5578 5573 5567 5561 5555 5550 5544
5772 5772 5771 5770 5770 5770 5768 5766 5765 5763 5761 5758 5756 5754 5752 5749 5747 5745 5743 5742 5739 5738 5740 5737 5732 5725 5719 5722 5726 5723 5725 5728 5728 5726 5724 5722 5718 5712 5708 5704 5701 5698 5694 5692 5690 5688 5687 5686 5685 5683 5682 5679 5677 5674 5670 5667 5664 5660 5657 5654 5649 5646 5642 5638 5635 5631 5626 5622 5618 5614 5610 5606 5602 5598 5593 5589 5585 5580 5574 5567 5562 5556 5551 5546 5541 5536
5765 5765 5765 5764 5765 5764 5762 5761 5759 5757 5755 5752 5750 5749 5747 5744 5742 5739 5736 5734 5732 5734 5732 5728 5724 5717 5714 5718 5717 5715 5718 5721 5723 5720 5718 5716 5711 5705 5701 5697 5695 5692 5687 5685 5683 5681 5680 5679 5677 5676 5674 5672 5669 5666 5663 5659 5656 5653 5649 5646 5642 5638 5634 5631 5627 5623 5618 5614 5609 5605 5601 5597 5593 5589 5584 5579 5574 5568 5562 5556 5550 5544 5539 5535 5531 5526
5757 5756 5758 5759 5758 5758 5757 5755 5753 5751 5748 5745 5744 5743 5741 5741 5737 5733 5732 5729 5727 5728 5723 5718 5716 5712 5711 5711 5707 5707 5711 5715 5716 5714 5711 5709 5703 5698 5695 5691 5688 5684 5681 5679 5676 5674 5673 5672 5671 5669 5667 5664 5661 5658 5655 5652 5649 5645 5642 5638 5634 5630 5626 5623 5619 5615 5611 5606 5601 5597 5593 5588 5584 5579 5575 5569 5563 5557 5550 5544 5539 5533 5527 5522 5518 5514
5751 5749 5750 5750 5750 5751 5750 5748 5747 5744 5741 5739 5738 5737 5735 5735 5731 5726 5726 5725 5723 5721 5715 5709 5708 5708 5707 5704 5700 5702 5707 5710 5710 5707 5705 5702 5696 5692 5688 5685 5681 5677 5674 5672 5669 5667 5665 5664 5664 5662 5659 5656 5653 5650 5647 5644 5641 5637 5634 5630 5626 5622 5618 5615 5611 5606 5603 5598 5593 5588 5584 5579 5575 5570 5565 5559 5552 5545 5538 5532 5527 5523 5517 5511 5506 5502
5745 5743 5744 5742 5741 5742 5741 5740 5739 5736 5733 5733 5732 5731 5730 5728 5724 5720 5719 5720 5718 5712 5708 5704 5700 5700 5701 5696 5695 5699 5702 5704 5703 5699 5697 5693 5688 5684 5680 5676 5673 5669 5667 5664 5661 5660 5658 5657 5656 5653 5650 5647 5645 5642 5639 5636 5633 5630 5626 5622 5618 5614 5611 5607 5603 5599 5595 5590 5585 5580 5575 5570 5565 5560 5554 5548 5542 5534 5528 5522 5516 5512 5507 5501 5495 5491
5738 5737 5737 5736 5734 5734 5734 5731 5729 5727 5727 5726 5726 5726 5723 5719 5717 5715 5712 5712 5710 5703 5700 5700 5696 5692 5691 5690 5691 5694 5696 5696 5693 5689 5688 5685 5680 5675 5671 5667 5664 5661 5658 5655 5653 5652 5650 5649 5648 5645 5642 5639 5637 5634 5631 5628 5626 5622 5618 5614 5610 5606 5603 5599 5595 5591 5586 5582 5577 5572 5567 5561 5556 5551 5544 5538 5531 5524 5518 5512 5506 5501 5496 5491 5485 5480
5730 5728 5730 5731 5728 5728 5727 5722 5720 5721 5721 5719 5718 5717 5714 5711 5710 5710 5706 5703 5700 5695 5692 5694 5693 5684 5679 5684 5688 5689 5690 5689 5685 5680 5679 5678 5672 5667 5663 5659 5655 5653 5650 5647 5646 5644 5643 5641 5639 5636 5634 5631 5629 5626 5623 5620 5618 5614 5610 5606 5602 5599 5595 5591 5587 5583 5578 5573 5569 5564 5558 5553 5546 5541 5535 5528 5521 5514 5508 5503 5497 5491 5486 5481 5475 5469
5722 5719 5721 5726 5724 5721 5718 5715 5716 5717 5715 5712 5709 5707 5705 5704 5703 5702 5699 5695 5691 5688 5684 5684 5685 5677 5672 5679 5684 5685 5686 5683 5677 5674 5673 5670 5665 5660 5656 5652 5649 5646 5642 5641 5639 5637 5636 5634 5631 5629 5626 5624 5621 5618 5615 5613 5609 5606 5602 5598 5595 5591 5587 5583 5579 5575 5570 5565 5560 5555 5549 5544 5538 5531 5525 5518 5511 5504 5498 5493 5487 5482 5477 5471 5465 5459
5715 5711 5712 5718 5717 5712 5711 5711 5711 5710 5707 5704 5702 5699 5698 5698 5695 5691 5689 5688 5684 5680 5675 5673 5672 5669 5668 5674 5679 5680 5678 5674 5670 5667 5665 5662 5657 5652 5648 5645 5642 5639 5636 5635 5633 5630 5629 5626 5624 5622 5619 5616 5614 5611 5608 5605 5601 5598 5594 5591 5587 5584 5579 5575 5571 5567 5563 5557 5552 5547 5541 5534 5528 5522 5515 5508 5501 5495 5489 5483 5477 5472 5467 5462 5455 5448
5708 5704 5705 5707 5706 5704 5704 5703 5701 5699 5697 5696 5695 5695 5694 5693 5689 5682 5679 5681 5678 5671 5666 5661 5657 5659 5666 5671 5674 5673 5668 5665 5663 5660 5657 5654 5649 5645 5641 5638 5635 5632 5630 5628 5626 5623 5621 5619 5617 5614 5612 5609 5606 5603 5600 5597 5593 5590 5587 5583 5579 5576 5571 5567 5564 5559 5554 5549 5543 5537 5531 5525 5519 5513 5506 5499 5492 5485 5479 5473 5468 5462 5457 5452 5445 5438
5701 5698 5697 5697 5697 5697 5694 5692 5691 5688 5688 5687 5688 5690 5689 5686 5684 5677 5671 5671 5671 5664 5657 5650 5644 5649 5662 5668 5666 5663 5659 5657 5655 5652 5650 5647 5642 5637 5634 5631 5628 5626 5624 5621 5618 5616 5614 5612 5609 5606 5604 5601 5598 5596 5593 5589 5586 5582 5579 5576 5572 5568 5564 5560 5556 5551 5546 5540 5534 5528 5522 5516 5510 5504 5497 5490 5483 5476 5470 5464 5458 5452 5447 5441 5435 5428
5693 5690 5688 5687 5688 5687 5683 5682 5681 5679 5679 5681 5682 5683 5680 5678 5677 5672 5663 5659 5658 5654 5648 5642 5635 5640 5656 5662 5656 5653 5652 5650 5647 5643 5641 5637 5632 5629 5626 5623 5622 5619 5616 5613 5610 5609 5606 5604 5602 5599 5596 5593 5590 5588 5585 5581 5578 5575 5572 5569 5564 5560 5556 5552 5548 5543 5537 5532 5525 5519 5513 5507 5502 5495 5488 5482 5475 5468 5461 5455 5449 5442 5436 5430 5424 5417
5683 5681 5680 5678 5676 5675 5672 5671 5671 5673 5674 5674 5675 5674 5671 5672 5670 5663 5656 5649 5643 5642 5641 5635 5629 5634 5648 5651 5644 5643 5643 5641 5639 5634 5630 5627 5624 5622 5619 5616 5615 5611 5608 5606 5603 5601 5599 5596 5594 5591 5588 5585 5583 5580 5577 5574 5571 5568 5565 5561 5556 5552 5548 5543 5539 5534 5528 5523 5517 5511 5505 5499 5493 5487 5480 5473 5467 5460 5452 5446 5440 5433 5426 5420 5415 5408
5673 5672 5671 5667 5662 5661 5662 5663 5665 5667 5666 5663 5665 5665 5665 5665 5662 5656 5650 5637 5628 5631 5633 5628 5621 5625 5639 5642 5636 5635 5634 5632 5630 5625 5620 5619 5617 5615 5612 5609 5607 5604 5601 5599 5597 5594 5592 5589 5587 5583 5580 5578 5576 5573 5570 5566 5564 5560 5557 5553 5549 5544 5540 5535 5530 5525 5520 5515 5509 5503 5497 5491 5485 5479 5472 5466 5459 5452 5445 5438 5432 5425 5418 5411 5406 5399
5660 5658 5659 5656 5651 5650 5653 5657 5657 5656 5654 5653 5655 5657 5658 5656 5653 5651 5641 5628 5624 5624 5620 5620 5618 5614 5624 5633 5630 5629 5627 5623 5620 5616 5611 5611 5609 5606 5604 5601 5598 5596 5594 5592 5589 5586 5584 5581 5579 5576 5573 5571 5568 5565 5562 5559 5556 5553 5549 5545 5541 5536 5531 5526 5521 5516 5511 5506 5500 5495 5489 5483 5477 5471 5465 5458 5451 5444 5438 5431 5425 5418 5411 5405 5398 5391
5647 5645 5649 5647 5642 5642 5647 5650 5647 5642 5644 5646 5646 5648 5649 5646 5644 5640 5631 5627 5629 5617 5602 5611 5618 5607 5609 5621 5622 5622 5620 5614 5611 5609 5604 5603 5601 5598 5595 5592 5590 5588 5586 5584 5581 5578 5576 5573 5571 5568 5566 5564 5561 5558 5555 5552 5549 5545 5541 5537 5532 5528 5523 5518 5512 5507 5503 5497 5492 5487 5481 5475 5469 5463 5457 5451 5444 5437 5430 5424 5418 5411 5405 5398 5391 5383
5636 5634 5641 5639 5633 5634 5639 5640 5635 5632 5635 5638 5637 5639 5640 5637 5633 5629 5624 5628 5629 5609 5595 5607 5614 5602 5601 5610 5613 5614 5610 5603 5602 5602 5598 5594 5592 5589 5586 5584 5582 5580 5578 5575 5572 5570 5568 5565 5563 5561 5558 5556 5553 5550 5548 5544 5541 5537 5533 5528 5523 5519 5514 5509 5504 5499 5495 5490 5485 5479 5473 5467 5461 5456 5450 5443 5437 5430 5423 5417 5411 5405 5399 5391 5384 5376
5625 5623 5632 5631 5623 5624 5630 5630 5625 5623 5625 5627 5629 5633 5631 5625 5624 5623 5621 5622 5617 5603 5598 5605 5602 5596 5599 5604 5604 5604 5601 5595 5594 5593 5590 5586 5583 5580 5578 5576 5574 5572 5570 5566 5564 5562 5560 5558 5556 5554 5551 5549 5546 5543 5540 5537 5533 5528 5524 5519 5514 5510 5505 5500 5496 5491 5487 5482 5477 5471 5465 5460 5454 5448 5442 5436 5430 5423 5417 5410 5404 5398 5392 5385 5377 5368
5617 5614 5622 5622 5611 5613 5622 5622 5616 5615 5614 5614 5619 5624 5621 5615 5617 5620 5616 5611 5604 5598 5600 5601 5590 5587 5598 5602 5595 5591 5591 5589 5586 5585 5582 5578 5574 5572 5571 5569 5566 5564 5561 5558 5557 5555 5553 5551 5548 5546 5544 5541 5539 5536 5532 5528 5524 5519 5515 5510 5505 5501 5497 5492 5488 5483 5479 5474 5469 5464 5458 5452 5446 5440 5434 5429 5423 5416 5410 5403 5397 5391 5385 5378 5369 5361
5610 5607 5612 5611 5599 5601 5615 5613 5604 5605 5604 5600 5606 5614 5616 5613 5611 5611 5607 5601 5596 5593 5594 5592 5583 5582 5592 5594 5586 5583 5584 5581 5577 5577 5574 5570 5568 5566 5563 5561 5558 5555 5553 5551 5550 5548 5545 5544 5541 5539 5537 5534 5531 5528 5524 5520 5515 5510 5506 5502 5497 5493 5488 5484 5480 5475 5470 5466 5461 5455 5450 5444 5438 5432 5427 5421 5416 5410 5403 5396 5390 5384 5378 5370 5362 5353
5604 5600 5603 5602 5590 5591 5603 5599 5592 5593 5588 5585 5597 5610 5612 5608 5602 5597 5596 5595 5593 5589 5583 5580 5579 5581 5582 5578 5575 5576 5576 5572 5570 5569 5566 5563 5562 5559 5556 5553 5550 5548 5547 5545 5543 5541 5539 5537 5535 5533 5530 5527 5523 5519 5515 5511 5506 5501 5497 5493 5489 5484 5480 5475 5471 5467 5462 5457 5452 5447 5442 5436 5431 5425 5420 5415 5409 5403 5396 5389 5383 5376 5370 5363 5355 5346
5596 5594 5594 5592 5583 5580 5587 5587 5580 5574 5569 5577 5597 5606 5602 5599 5593 5586 5586 5590 5589 5583 5575 5570 5574 5578 5573 5567 5565 5565 5564 5565 5564 5562 5558 5556 5554 5551 5549 5547 5544 5542 5541 5538 5536 5534 5532 5530 5528 5525 5522 5519 5514 5510 5506 5502 5498 5493 5489 5485 5480 5476 5471 5467 5463 5458 5453 5449 5444 5439 5434 5428 5423 5418 5413 5408 5402 5395 5389 5382 5376 5369 5362 5355 5347 5338
5588 5587 5584 5582 5576 5569 5571 5574 5561 5550 5562 5582 5592 5593 5592 5590 5586 5579 5576 5580 5581 5577 5569 5563 5566 5571 5566 5559 5557 5553 5552 5556 5558 5556 5552 5547 5545 5544 5542 5540 5538 5536 5534 5532 5529 5527 5525 5523 5520 5517 5513 5510 5506 5502 5498 5493 5489 5485 5481 5476 5472 5467 5463 5458 5454 5449 5445 5440 5435 5431 5426 5421 5416 5411 5406 5401 5395 5388 5382 5375 5368 5362 5356 5348 5339 5329
5580 5578 5574 5571 5567 5558 5556 5555 5542 5539 5560 5578 5580 5584 5587 5582 5576 5570 5565 5568 5574 5572 5564 5557 5559 5563 5558 5550 5548 5545 5543 5546 5549 5550 5545 5538 5537 5537 5535 5534 5532 5528 5527 5525 5522 5520 5518 5515 5512 5508 5505 5501 5497 5493 5489 5485 5481 5477 5472 5468 5464 5459 5455 5450 5446 5441 5436 5432 5427 5422 5418 5413 5409 5404 5399 5394 5388 5382 5375 5368 5361 5355 5349 5342 5332 5321
5571 5568 5565 5560 5555 5550 5544 5539 5534 5534 5545 5561 5574 5584 5582 5571 5566 5562 5551 5554 5568 5568 5557 5552 5553 5552 5548 5542 5540 5538 5536 5536 5541 5546 5539 5528 5529 5531 5528 5527 5525 5521 5520 5517 5514 5513 5510 5507 5504 5501 5496 5493 5488 5484 5480 5476 5472 5468 5464 5460 5456 5451 5447 5443 5438 5433 5428 5423 5419 5414 5410 5406 5401 5397 5392 5387 5381 5375 5369 5362 5354 5348 5342 5334 5325 5314
5562 5559 5557 5549 5542 5543 5537 5528 5526 5522 5526 5550 5573 5579 5571 5561 5559 5555 5539 5540 5561 5566 5554 5548 5545 5540 5538 5536 5532 5531 5530 5528 5533 5541 5533 5521 5521 5524 5521 5519 5517 5514 5512 5509 5507 5505 5502 5499 5496 5492 5488 5484 5480 5476 5472 5468 5464 5460 5456 5453 5448 5444 5439 5435 5430 5425 5420 5416 5411 5407 5403 5398 5394 5390 5385 5379 5374 5368 5363 5356 5348 5341 5334 5326 5317 5307
5553 5549 5550 5540 5532 5535 5530 5519 5516 5512 5518 5546 5565 5564 5558 5553 5552 5548 5532 5531 5554 5561 5548 5540 5535 5529 5529 5529 5525 5524 5523 5520 5525 5531 5525 5515 5515 5515 5513 5511 5509 5506 5504 5502 5500 5498 5494 5491 5488 5484 5480 5476 5471 5468 5464 5460 5456 5453 5448 5445 5440 5436 5431 5427 5422 5417 5412 5408 5403 5399 5395 5391 5386 5382 5378 5373 5367 5361 5355 5349 5342 5335 5328 5318 5309 5300
5544 5542 5540 5531 5525 5529 5524 5513 5509 5507 5516 5540 5552 5548 5545 5543 5543 5537 5524 5530 5549 5548 5534 5530 5527 5523 5522 5520 5517 5518 5516 5513 5515 5518 5516 5511 5508 5507 5505 5503 5500 5498 5496 5494 5492 5490 5487 5483 5480 5475 5472 5468 5464 5460 5456 5452 5449 5445 5441 5437 5432 5427 5423 5418 5414 5410 5405 5400 5396 5391 5388 5384 5379 5374 5370 5366 5360 5354 5348 5342 5335 5328 5321 5313 5302 5292
5536 5534 5529 5524 5521 5522 5518 5509 5503 5503 5516 5534 5539 5535 5533 5530 5529 5524 5519 5530 5540 5530 5521 5522 5519 5517 5516 5511 5509 5511 5509 5506 5505 5506 5506 5504 5501 5499 5497 5495 5492 5490 5488 5486 5484 5483 5479 5475 5472 5468 5463 5460 5456 5451 5447 5444 5441 5437 5433 5429 5424 5419 5415 5411 5406 5402 5397 5393 5389 5384 5380 5376 5372 5367 5363 5358 5353 5348 5341 5335 5328 5322 5315 5307 5297 5287
5528 5526 5521 5518 5516 5514 5511 5506 5497 5499 5518 5531 5526 5522 5521 5516 5514 5517 5521 5526 5524 5517 5516 5516 5511 5510 5509 5504 5503 5504 5501 5499 5497 5497 5498 5496 5493 5492 5490 5487 5485 5483 5481 5480 5477 5475 5472 5467 5463 5459 5455 5451 5447 5443 5440 5436 5433 5429 5425 5421 5416 5412 5407 5403 5399 5394 5390 5386 5382 5378 5373 5369 5365 5360 5356 5351 5346 5342 5335 5328 5321 5315 5307 5299 5290 5280
5517 5515 5509 5510 5513 5508 5503 5500 5494 5497 5517 5525 5514 5509 5511 5509 5511 5517 5516 5513 5512 5512 5511 5507 5504 5503 5500 5497 5498 5496 5493 5493 5491 5489 5490 5488 5485 5485 5482 5479 5478 5476 5474 5473 5470 5466 5463 5459 5454 5451 5446 5443 5439 5435 5433 5429 5425 5421 5417 5412 5409 5404 5400 5396 5391 5387 5384 5380 5375 5371 5366 5362 5358 5353 5349 5344 5339 5335 5330 5323 5316 5309 5301 5293 5284 5275
5499 5502 5501 5504 5508 5501 5491 5489 5493 5501 5511 5514 5506 5504 5505 5507 5511 5512 5505 5503 5507 5508 5503 5498 5496 5493 5490 5490 5490 5488 5487 5486 5483 5481 5481 5479 5477 5476 5474 5472 5471 5468 5466 5464 5461 5458 5455 5450 5446 5443 5438 5435 5431 5427 5425 5421 5417 5413 5409 5404 5401 5396 5392 5388 5384 5380 5377 5373 5369 5365 5360 5355 5351 5346 5342 5338 5333 5328 5323 5316 5310 5303 5296 5287 5278 5269
5484 5496 5498 5493 5490 5487 5482 5483 5491 5500 5504 5503 5501 5501 5501 5501 5504 5503 5498 5497 5501 5499 5495 5490 5486 5483 5482 5482 5481 5480 5479 5477 5475 5474 5472 5470 5468 5467 5465 5464 5462 5459 5458 5455 5452 5450 5446 5442 5438 5435 5430 5426 5423 5419 5416 5413 5409 5405 5401 5396 5393 5389 5385 5381 5377 5373 5370 5366 5363 5358 5353 5349 5344 5339 5335 5331 5326 5321 5317 5310 5303 5298 5291 5282 5273 5263
5476 5486 5483 5475 5472 5471 5471 5477 5488 5494 5494 5495 5496 5496 5496 5495 5495 5495 5493 5491 5492 5489 5485 5481 5477 5474 5473 5471 5470 5471 5470 5468 5467 5465 5462 5460 5459 5456 5455 5454 5452 5450 5448 5446 5444 5441 5437 5433 5430 5426 5421 5418 5414 5411 5408 5404 5401 5397 5392 5389 5385 5381 5377 5373 5370 5366 5363 5359 5356 5352 5347 5343 5338 5333 5328 5323 5318 5313 5308 5302 5296 5291 5285 5277 5268 5258
5466 5471 5465 5460 5459 5455 5454 5467 5484 5487 5482 5484 5487 5488 5490 5489 5487 5486 5485 5483 5482 5479 5475 5472 5470 5467 5464 5462 5462 5462 5461 5459 5458 5454 5452 5451 5449 5446 5446 5444 5442 5441 5439 5437 5434 5431 5428 5424 5420 5416 5413 5409 5406 5403 5400 5396 5392 5389 5384 5381 5378 5374 5370 5366 5363 5359 5356 5353 5350 5346 5342 5338 5333 5327 5321 5316 5311 5306 5300 5294 5288 5282 5277 5272 5264 5255
5454 5458 5449 5445 5445 5442 5442 5456 5472 5473 5470 5473 5476 5477 5481 5481 5477 5475 5475 5472 5470 5469 5466 5465 5462 5458 5456 5455 5454 5453 5451 5450 5448 5445 5444 5442 5440 5438 5437 5434 5432 5431 5429 5427 5425 5421 5418 5415 5411 5408 5404 5401 5398 5395 5391 5388 5384 5380 5377 5374 5370 5367 5363 5359 5356 5353 5350 5347 5344 5340 5337 5332 5328 5322 5316 5309 5303 5298 5294 5289 5281 5273 5267 5263 5257 5249
5441 5440 5436 5436 5435 5431 5434 5447 5459 5458 5456 5461 5465 5466 5469 5469 5465 5463 5462 5460 5459 5458 5457 5455 5452 5450 5449 5447 5445 5444 5442 5440 5439 5437 5434 5433 5432 5430 5428 5425 5424 5422 5420 5418 5415 5411 5408 5406 5402 5399 5396 5393 5390 5387 5383 5380 5376 5372 5369 5366 5363 5360 5356 5352 5350 5347 5344 5341 5338 5334 5331 5327 5322 5318 5312 5304 5296 5288 5283 5280 5275 5267 5259 5252 5247 5240
5425 5424 5429 5431 5423 5417 5425 5442 5451 5445 5439 5445 5454 5456 5455 5455 5452 5450 5449 5448 5448 5448 5447 5445 5443 5442 5441 5439 5437 5435 5433 5432 5431 5428 5425 5424 5423 5421 5419 5417 5415 5413 5411 5408 5405 5402 5400 5397 5393 5391 5388 5385 5382 5379 5375 5372 5368 5365 5362 5359 5356 5353 5349 5346 5344 5342 5338 5336 5333 5329 5325 5321 5316 5312 5307 5301 5294 5285 5275 5267 5262 5257 5251 5244 5238 5233
5409 5414 5421 5420 5411 5410 5421 5433 5436 5430 5425 5433 5443 5445 5442 5440 5439 5437 5437 5438 5438 5439 5438 5436 5434 5433 5432 5431 5429 5426 5424 5424 5422 5418 5417 5416 5414 5412 5411 5409 5407 5405 5402 5399 5396 5393 5390 5387 5385 5382 5379 5377 5374 5371 5368 5365 5361 5358 5355 5352 5349 5346 5343 5340 5338 5336 5333 5330 5327 5323 5320 5316 5311 5306 5301 5296 5291 5284 5276 5266 5254 5246 5240 5234 5230 5227